Torna al catalogo

CONNECTA IOT-1

AttivoComunicazioniSSO
NORAD 60472·PAYLOAD·🇹🇷 Turkey

Lanciato Aug 16, 2024 da Vandenberg Space Force Base

Loading…

Prossimi Passaggi (prossime 24 ore)

TLE

AggiornatoSource: Space-Track

Epoca: Sep 14, 2026, 11:11 UTC

1 60472U 24149E   26257.46597867  .00006267  00000-0  25979-3 0  9999
2 60472  97.3691 332.2542 0001532  14.9066 345.2216 15.24238222115397

Traccia CONNECTA IOT-1 in tempo reale con AllMySat

Download on the App Store